GFSNE_250_spd_159.txt.gz
Wind_Speed
34 33 36 31 27 25 24 27 27 22 24 21 17 16 13 11 10 10 11 11 13 14 15 19 17 15 16 17 18 20 21 22 22 23 22 23 23 24
33 36 37 36 29 27 25 27 26 24 22 23 22 17 13 11 13 14 16 19 23 26 24 21 21 24 25 24 24 26 26 27 27 28 29 29 29 30
37 36 38 37 32 29 27 26 24 25 24 21 20 20 18 16 18 16 17 15 23 25 26 25 25 25 26 26 26 28 27 28 29 31 32 32 36 38
37 38 40 40 35 35 32 25 25 26 26 24 20 18 18 17 19 18 21 18 25 26 22 24 29 30 30 29 29 28 33 35 36 37 38 43 44 45
31 37 38 42 37 39 35 29 26 22 22 21 19 15 15 18 20 24 26 25 27 30 29 28 31 33 34 33 34 36 39 40 42 43 45 46 49 50
32 36 38 42 41 42 40 35 32 28 24 22 21 19 21 22 23 26 29 32 37 38 38 37 37 38 36 36 39 41 44 47 47 46 46 46 49 51
36 35 36 38 42 44 46 41 40 40 38 30 30 30 31 33 33 33 35 35 37 40 42 44 42 42 42 43 45 49 51 52 53 53 54 54 57 57
36 36 37 39 42 45 50 49 45 47 45 42 39 40 42 44 45 46 46 44 44 42 43 43 45 47 48 50 51 51 52 53 57 59 58 58 60 59
39 43 42 41 44 46 50 51 51 50 50 50 50 50 49 50 51 52 49 48 48 48 48 46 46 47 48 51 54 57 58 61 62 63 63 66 66 66
47 47 46 45 43 44 46 52 54 53 50 51 51 52 50 50 51 51 50 50 53 54 55 55 54 53 51 52 55 57 60 63 66 68 69 70 72 75
45 46 47 48 46 46 45 48 51 51 52 49 49 49 50 52 54 53 53 55 57 57 58 60 60 62 63 64 66 68 68 67 67 66 69 72 75 78
46 45 48 48 49 48 44 45 46 49 45 45 45 45 48 51 54 55 53 54 54 57 61 63 64 65 67 67 69 69 70 71 73 73 74 77 79 82
56 51 49 51 48 47 48 49 47 47 42 44 43 48 50 52 53 55 52 50 56 60 63 65 68 70 72 72 71 73 76 76 76 75 78 82 83 89
62 61 58 53 53 52 54 48 44 46 47 43 51 55 49 44 51 49 49 48 55 56 67 68 66 70 74 73 78 80 79 76 78 82 88 96 96 100
63 62 61 61 59 57 59 58 54 53 52 54 57 59 55 50 52 52 48 56 66 70 69 65 62 72 75 80 81 79 79 83 86 86 93 99 102 106
65 67 66 64 65 66 64 63 62 59 57 59 63 59 57 56 59 61 58 59 67 65 71 77 78 74 77 79 78 84 87 91 93 97 102 104 109 113
56 62 66 69 71 70 72 71 70 69 66 63 64 64 63 62 59 68 65 63 67 73 67 72 74 76 83 86 86 88 90 94 99 103 106 110 112 111
60 61 63 66 69 71 74 74 77 77 75 74 71 69 70 72 73 76 73 74 76 74 81 81 85 87 86 82 90 95 102 102 104 105 109 115 118 118
67 67 67 67 67 69 72 73 76 78 81 82 81 81 81 78 81 78 80 84 80 86 93 92 91 94 96 96 96 97 100 104 104 107 114 119 121 123
68 68 68 68 68 69 70 70 71 73 77 80 83 86 86 86 87 88 87 87 87 90 92 93 96 96 97 98 97 99 104 106 109 115 115 120 125 128
57 62 65 67 68 67 68 69 70 70 72 73 75 81 82 86 84 85 87 88 91 93 94 95 95 99 99 100 100 101 107 110 113 117 117 120 122 124
34 39 48 52 50 51 51 59 63 63 70 73 74 75 74 74 74 75 76 78 81 81 82 85 87 88 91 92 92 95 100 105 111 110 112 115 121 127
25 28 23 30 36 44 45 44 46 49 58 66 67 67 72 77 75 74 74 75 76 79 83 83 84 84 87 90 94 96 100 102 107 110 112 114 121 127

GFSNE_250_spd_162.txt.gz
Wind_Speed
35 31 27 25 28 28 26 25 23 23 23 20 16 16 14 13 13 12 10 12 15 15 16 18 20 21 18 19 20 21 20 21 21 20 22 24 25 27
33 31 27 25 29 30 29 27 26 24 24 25 20 17 17 14 14 14 14 15 18 19 21 22 24 23 24 24 24 25 24 25 24 25 27 29 31 32
31 28 24 24 29 32 32 30 29 27 25 24 22 20 19 18 19 19 19 18 21 25 26 19 22 20 22 24 26 28 27 27 26 29 30 31 33 36
25 26 26 27 31 31 33 33 32 29 26 26 25 25 23 22 19 21 20 22 23 26 29 22 22 24 26 28 28 31 31 31 34 34 37 39 41 41
20 22 23 26 29 31 32 36 35 34 29 26 25 24 24 20 17 18 19 20 23 25 28 29 34 35 34 33 34 36 36 36 36 40 42 44 46 47
23 24 24 24 27 30 33 35 37 38 34 30 25 20 21 21 24 22 22 24 27 27 32 35 36 37 37 39 42 43 43 42 44 46 46 46 46 48
13 21 25 27 29 31 33 35 37 42 41 36 36 34 30 28 30 30 33 35 38 40 40 41 41 42 42 44 44 42 43 44 46 47 49 52 53 54
21 19 18 20 24 28 32 33 37 41 46 45 41 40 41 39 39 39 43 44 47 49 48 45 43 45 46 48 48 48 48 48 49 50 52 54 57 59
27 30 26 23 24 26 30 34 38 41 44 48 49 46 45 43 45 47 49 49 50 49 48 48 47 49 52 54 53 53 53 55 57 58 60 60 61 61
39 38 33 30 31 35 35 37 39 42 45 47 49 50 51 48 49 51 50 48 49 51 51 50 46 45 49 54 54 55 57 57 60 63 65 66 66 67
44 43 38 40 40 40 41 43 41 43 41 41 45 48 50 49 49 49 49 46 49 49 48 49 51 50 52 56 57 57 59 61 64 65 66 68 70 74
52 52 52 51 47 45 43 43 44 45 46 45 41 41 41 47 45 46 46 48 51 55 53 52 52 50 56 58 60 61 65 69 71 74 75 78 81 83
53 56 58 58 58 57 52 46 47 42 39 40 42 42 42 42 41 46 46 54 49 51 48 50 53 58 57 65 68 71 75 75 75 80 82 85 87 88
57 58 58 56 57 59 58 55 46 44 42 38 40 40 41 51 47 54 53 50 47 48 49 55 56 59 61 64 69 67 69 71 75 79 84 84 89 94
57 59 59 60 60 58 58 57 55 51 52 44 53 52 61 54 51 47 49 53 49 54 56 63 63 61 60 66 74 75 79 80 78 81 83 90 97 102
49 52 55 57 60 61 62 63 61 62 61 62 62 63 64 69 66 68 67 60 60 53 69 70 76 80 76 73 77 79 83 82 84 88 92 98 104 107
50 52 52 52 54 56 58 61 63 65 66 68 72 72 71 72 72 75 76 76 70 72 70 72 74 77 77 81 87 91 96 98 99 99 103 108 109 109
55 57 61 62 61 61 58 59 61 63 65 69 73 76 77 77 77 78 78 73 72 76 79 81 81 82 80 82 89 94 98 100 104 106 106 112 113 114
64 69 71 71 71 70 69 67 65 65 66 67 69 73 77 79 81 83 84 84 82 83 83 86 88 90 93 96 97 99 101 103 106 107 109 107 108 110
65 63 60 61 66 68 70 71 71 67 66 66 69 69 70 74 80 81 83 85 86 87 86 89 93 95 97 101 101 104 105 107 104 103 103 105 104 107
51 44 40 37 43 52 61 65 65 65 66 65 66 66 67 71 72 74 76 78 80 81 82 84 87 89 91 93 93 93 93 93 94 94 95 97 101 103
41 35 31 28 27 28 36 41 43 48 53 58 63 64 67 68 70 72 72 74 74 76 78 79 80 81 82 85 86 88 88 89 89 89 94 96 98 104
33 27 23 23 22 23 32 40 46 41 39 44 45 47 49 55 59 62 67 71 73 76 77 72 73 76 77 76 77 79 82 82 82 85 91 93 99 102

GFSNE_250_spd_165.txt.gz
Wind_Speed
33 30 29 31 29 25 24 23 24 22 22 22 22 21 20 18 16 15 17 17 16 15 14 15 17 15 18 19 19 19 19 20 21 22 20 17 21 24
42 38 36 35 32 28 26 27 26 24 25 25 24 24 23 20 19 17 17 17 17 19 21 20 21 22 20 18 19 20 20 22 22 24 25 25 27 27
43 41 37 35 31 29 28 28 28 27 26 26 26 25 23 21 20 20 21 20 20 19 21 22 20 19 15 18 21 23 24 24 26 28 30 31 32 34
43 40 34 31 30 29 29 30 29 30 31 30 27 25 24 25 24 22 21 21 21 21 21 21 19 21 24 28 29 29 27 27 29 32 34 36 37 38
28 30 27 25 28 27 28 30 33 33 34 32 31 29 27 26 27 26 23 22 22 22 18 19 21 25 27 31 33 34 34 34 36 38 38 40 42 44
22 23 26 26 26 24 27 28 30 31 35 37 36 36 32 30 29 27 27 27 28 29 27 27 31 34 35 38 38 39 40 38 38 40 41 43 44 45
23 25 25 26 27 25 25 26 30 33 33 37 39 40 38 34 30 31 32 34 34 35 36 38 40 39 42 38 39 41 44 43 45 48 48 49 49 50
23 20 17 18 17 17 22 27 28 31 34 37 40 43 44 43 42 42 41 40 41 43 44 45 43 42 45 44 39 42 46 43 44 46 48 50 53 54
27 28 28 30 23 22 22 22 25 29 31 33 36 41 45 48 47 49 47 48 49 49 48 47 44 43 38 39 41 48 49 50 50 50 51 54 57 59
33 33 33 32 33 32 30 30 28 27 31 32 36 39 40 42 47 50 52 53 53 56 53 48 47 49 51 51 49 48 51 51 51 55 57 59 62 63
42 43 40 41 43 41 39 34 34 38 36 35 37 40 39 40 45 49 52 54 56 56 50 50 48 48 52 50 44 49 50 56 58 59 62 64 69 71
45 51 52 52 53 51 48 45 46 48 44 43 41 40 41 42 41 44 44 48 51 49 47 44 45 49 55 56 50 51 61 57 60 64 62 67 71 76
47 48 50 50 51 52 53 53 55 56 56 53 49 43 40 43 46 48 46 46 46 45 48 48 54 56 55 58 61 60 64 62 71 71 69 69 74 79
43 50 51 52 54 55 55 56 56 56 58 58 55 51 44 38 42 45 46 48 55 54 53 56 48 51 56 63 65 65 69 71 69 71 72 79 81 83
44 44 47 47 48 51 54 57 59 60 61 61 59 58 51 47 53 51 53 54 57 56 56 51 56 62 64 66 69 68 68 72 74 77 76 76 84 87
46 47 48 49 50 51 52 53 56 61 63 63 63 60 59 61 62 59 64 66 67 69 68 67 69 69 70 69 71 73 75 79 83 87 93 97 99 99
47 48 49 51 52 53 55 57 57 57 60 62 62 63 66 67 72 70 71 71 72 74 79 69 71 74 77 82 83 85 90 92 92 92 94 98 101 104
45 48 50 51 53 56 59 62 64 64 65 66 64 65 64 68 73 78 81 83 83 82 83 83 80 80 83 87 89 89 91 93 94 99 102 104 108 110
45 47 51 54 58 62 64 65 68 72 75 74 70 70 68 67 67 71 77 82 86 87 88 88 89 91 91 91 92 94 96 96 99 102 106 105 106 105
47 52 57 59 60 61 54 50 50 58 65 69 71 72 72 71 71 72 73 74 77 81 83 86 88 90 94 98 100 101 102 101 100 101 101 103 105 105
51 54 55 55 53 49 44 36 31 37 47 54 60 66 67 67 68 69 70 71 72 75 78 81 82 83 84 87 87 88 90 91 92 94 96 93 91 85
51 52 52 51 45 40 37 28 24 35 37 36 41 46 51 58 63 66 69 70 70 71 71 73 75 78 79 81 83 86 89 89 87 82 78 77 78 82
47 47 50 47 41 36 32 27 31 38 40 41 46 43 43 39 45 49 48 45 47 51 56 61 60 63 65 65 64 63 64 69 73 72 75 75 79 85

GFSNE_250_spd_168.txt.gz
Wind_Speed
42 37 33 32 30 25 25 24 22 26 26 21 20 18 18 18 18 19 18 18 21 20 18 17 15 15 14 18 20 17 17 18 19 19 17 19 20 21
45 42 36 32 32 31 31 27 28 29 29 27 23 21 20 21 22 22 19 20 21 23 20 20 18 18 16 17 16 13 17 19 21 22 22 22 24 25
52 48 42 39 39 38 38 37 32 31 30 31 29 25 23 22 23 25 25 23 25 25 25 24 21 20 20 18 18 21 24 25 27 28 28 28 29 31
53 53 50 48 43 41 43 39 34 33 34 33 32 31 27 24 24 25 26 26 25 26 27 28 26 25 20 19 19 24 26 29 31 31 32 34 35 36
53 53 49 45 46 45 43 39 37 35 37 38 36 35 33 32 31 28 28 30 30 29 31 33 28 24 21 24 27 31 34 35 36 36 39 40 41 41
35 39 41 41 39 39 39 37 38 38 39 41 41 40 38 37 37 34 32 32 33 34 35 37 35 33 31 32 36 39 40 39 39 39 40 43 43 45
16 22 24 24 24 30 34 35 33 34 36 38 39 38 40 41 40 41 39 37 36 37 39 41 41 40 41 44 46 43 41 40 42 42 41 45 47 48
18 21 25 26 29 29 31 31 31 33 34 37 40 42 40 41 42 44 45 45 42 40 42 43 44 46 46 48 50 46 43 41 42 47 50 52 53 54
22 23 23 25 26 25 25 26 27 29 29 33 36 38 43 44 46 48 48 48 50 53 52 53 52 53 53 52 53 52 50 52 54 51 47 47 53 55
30 33 30 30 33 33 31 31 34 35 35 35 34 33 33 35 36 39 47 48 50 54 56 58 58 58 58 55 53 53 52 48 49 52 52 53 59 62
32 34 37 39 38 39 38 40 41 43 41 40 39 41 39 40 40 39 44 48 49 51 50 53 55 58 58 53 52 52 52 51 58 61 59 58 60 67
31 33 36 39 39 40 45 49 53 55 53 50 50 50 50 47 47 47 44 45 43 41 46 51 49 45 47 46 47 54 59 61 65 65 66 65 69 71
22 24 29 33 41 45 47 50 54 54 53 53 52 54 53 54 58 57 53 46 47 44 56 51 50 51 49 52 57 61 62 67 65 63 68 70 68 75
23 32 34 35 34 35 41 50 55 57 59 60 60 59 57 60 64 62 58 51 49 50 54 58 57 58 57 62 62 62 63 61 65 66 68 71 72 74
40 41 39 36 36 41 42 42 43 45 50 55 61 63 64 65 65 64 63 60 55 56 59 65 66 60 61 65 66 66 71 74 78 82 86 83 81 82
52 51 54 53 52 47 47 46 49 50 50 54 56 56 58 60 62 65 66 66 62 68 66 70 67 64 66 71 70 74 77 81 82 82 85 88 87 88
50 56 60 59 55 50 49 50 51 52 54 58 61 63 64 64 64 64 63 68 71 72 78 76 72 73 78 76 76 81 84 83 85 86 89 93 94 95
51 57 58 56 54 52 50 51 54 56 60 64 68 72 72 72 69 69 68 66 69 78 81 84 84 85 85 85 85 86 91 94 96 97 98 99 103 107
60 57 54 50 51 50 50 56 60 62 62 62 62 67 71 75 75 74 72 72 72 71 75 82 88 92 94 93 96 95 97 100 103 107 109 110 111 111
58 56 50 48 52 54 56 60 60 60 57 57 52 49 56 62 70 73 74 75 75 75 75 76 78 81 84 87 91 96 99 100 99 99 98 100 100 101
57 52 47 51 52 55 54 56 58 54 50 48 41 37 36 43 53 64 71 72 74 75 76 77 78 79 80 81 83 85 86 89 90 92 93 93 95 95
51 48 50 52 52 52 52 54 54 45 40 38 33 34 35 35 34 38 44 52 59 64 69 72 75 77 78 80 81 83 84 86 87 86 84 82 79 77
49 48 49 49 51 50 51 51 44 36 35 35 31 28 32 29 32 38 43 44 47 47 42 44 47 54 57 57 59 60 61 61 63 65 68 73 77 78

GFSNE_250_spd_171.txt.gz
Wind_Speed
44 43 38 37 36 29 28 26 24 22 22 21 25 27 25 22 20 19 19 19 20 20 19 21 22 20 18 19 17 17 18 12 14 16 18 19 20 22
51 47 43 40 38 35 33 30 26 28 26 28 28 29 28 26 22 21 23 26 24 23 23 23 21 23 23 22 20 20 16 13 18 21 23 25 25 27
54 52 48 46 42 38 36 35 33 32 33 33 32 31 31 30 28 26 23 26 27 29 27 26 26 26 27 25 24 21 23 24 24 25 27 28 29 32
51 55 53 51 49 46 41 39 35 35 39 37 36 35 35 34 31 29 22 28 33 32 32 30 29 29 29 30 30 28 24 23 27 31 34 35 36 37
35 45 52 54 51 48 45 45 44 42 44 43 39 39 39 38 38 37 34 34 35 35 34 34 34 34 36 34 33 31 29 29 33 36 38 38 40 43
17 28 39 47 49 46 46 48 45 44 42 41 44 43 40 42 44 42 42 43 42 41 36 34 37 40 41 39 37 37 37 39 41 46 46 43 39 43
14 13 21 30 37 38 37 36 34 35 35 37 39 40 42 42 44 46 45 46 47 47 44 41 40 42 45 47 46 44 46 47 49 52 51 50 49 48
13 11 10 13 16 19 23 26 31 36 35 33 34 34 35 37 41 42 46 47 48 49 50 50 48 45 48 51 52 49 49 52 55 56 58 59 57 58
18 17 18 19 21 22 24 26 25 26 31 30 30 31 30 33 34 39 40 42 46 50 50 52 52 50 54 53 56 58 59 60 63 64 60 58 56 55
28 24 23 26 30 31 30 32 35 35 35 35 36 36 34 35 37 36 37 39 43 48 49 50 49 50 53 55 57 60 61 62 63 60 56 54 57 56
33 33 35 35 33 35 36 36 40 42 41 43 43 44 43 40 40 41 43 43 45 48 49 48 45 42 45 46 47 49 47 44 49 52 51 53 60 64
26 28 29 30 31 32 35 41 43 43 43 45 47 47 48 50 50 47 47 50 52 53 52 50 49 49 52 56 56 53 52 55 55 59 58 67 67 70
28 29 28 17 19 22 29 36 35 38 44 47 50 54 57 57 56 55 55 52 57 62 64 62 57 53 54 53 63 54 55 58 61 64 64 69 75 73
26 27 24 22 21 25 35 34 39 43 48 52 54 54 57 57 61 63 60 61 63 64 68 67 66 63 63 63 53 55 56 62 67 69 72 74 74 79
31 32 33 33 38 44 44 48 52 51 49 50 50 52 52 53 54 57 60 63 69 72 74 79 78 75 72 73 71 68 65 68 77 77 78 81 83 82
37 35 39 39 42 43 49 50 53 55 50 50 49 50 52 54 56 59 59 62 65 67 71 77 80 80 79 78 76 77 80 79 79 76 79 80 81 84
31 29 29 32 37 45 56 53 55 55 51 50 50 51 54 59 64 67 68 70 72 73 73 71 72 72 79 81 81 83 85 80 81 80 79 81 83 86
37 34 34 38 48 53 56 56 57 52 49 50 52 56 62 65 68 71 76 77 76 77 80 79 76 74 73 74 82 87 89 92 95 95 97 99 99 101
42 44 46 49 50 58 60 59 54 48 48 51 57 60 62 66 71 71 68 66 67 69 73 76 77 77 76 76 77 78 85 93 97 99 100 103 106 105
51 52 54 58 59 65 64 59 49 49 51 54 56 59 63 66 56 53 50 46 46 50 59 66 70 74 77 77 78 78 80 81 84 88 91 94 95 96
53 55 60 63 65 66 62 53 49 50 52 54 56 59 59 49 46 44 39 39 33 32 36 43 53 62 68 72 75 77 79 81 83 84 86 85 84 82
58 59 62 65 62 64 57 51 52 51 51 53 55 57 47 43 39 37 36 31 32 34 37 38 38 40 42 45 49 53 55 59 63 65 66 65 64 66
66 64 64 64 62 63 51 52 52 49 49 51 53 45 38 35 36 34 33 33 34 34 38 38 39 41 44 46 47 49 51 53 56 58 60 63 66 70

GFSNE_250_spd_174.txt.gz
Wind_Speed
42 40 40 38 38 38 35 28 25 25 22 22 21 21 24 24 25 26 28 23 25 24 23 22 21 21 23 24 24 25 23 22 21 16 15 17 18 21
47 46 48 47 46 44 43 40 34 31 29 27 26 26 25 27 27 31 30 29 27 26 27 28 27 26 25 26 27 26 26 26 24 22 20 22 22 25
37 45 49 52 50 46 44 43 39 36 36 33 33 34 32 29 31 32 34 31 30 28 23 29 30 31 30 30 32 30 28 28 27 29 31 26 27 29
19 27 35 44 50 50 47 45 41 39 36 37 37 38 38 37 34 35 36 36 32 31 32 33 36 36 35 35 33 32 31 34 34 35 32 32 31 33
18 21 26 30 39 47 48 46 43 42 40 41 39 37 41 41 41 39 38 39 39 37 39 40 40 40 39 38 39 38 37 38 39 40 41 40 41 44
17 19 20 21 25 32 41 48 46 43 41 41 41 41 38 37 40 38 38 40 42 44 44 45 46 47 46 43 41 41 42 42 45 45 46 49 52 54
21 21 17 16 16 21 28 33 36 35 36 34 34 32 33 31 34 37 36 39 41 43 43 46 48 50 50 49 49 47 46 47 51 52 53 56 57 57
23 20 17 16 14 12 12 18 24 27 24 25 29 31 34 31 29 29 30 52 38 38 41 41 42 45 47 49 50 51 53 53 52 55 60 60 59 64
26 23 19 19 16 14 14 17 19 23 26 27 28 28 28 29 29 27 30 39 33 36 36 36 40 44 46 47 50 51 52 54 55 57 61 64 67 68
33 30 29 27 24 23 23 24 26 29 29 31 34 35 36 34 34 36 39 39 35 38 39 43 48 48 50 51 52 53 50 49 51 52 53 53 53 50
39 36 33 33 32 32 34 34 32 32 33 36 40 41 37 39 41 42 44 44 44 40 43 53 44 52 53 56 60 58 57 56 57 56 58 57 55 59
29 24 26 27 30 30 27 30 31 28 27 31 34 37 41 43 43 44 48 49 48 48 49 58 57 53 49 57 60 66 64 62 63 62 60 61 61 59
25 26 26 29 31 29 23 23 21 20 23 29 37 42 46 47 48 53 54 53 56 55 47 62 58 57 63 63 67 68 69 67 66 71 69 59 65 68
27 28 31 29 29 28 29 25 23 32 35 39 41 42 44 48 48 50 56 56 57 58 66 71 73 77 82 82 83 79 73 69 70 71 74 71 67 72
34 35 33 34 35 36 39 38 38 39 42 47 49 50 57 56 52 49 53 54 56 56 56 59 64 69 75 83 84 87 88 86 85 86 83 82 84 81
40 40 34 36 42 41 43 44 43 44 46 48 51 54 56 58 56 54 52 53 54 58 62 65 68 71 73 75 76 79 85 88 90 91 92 92 92 94
43 47 45 44 41 36 33 33 36 43 47 51 59 64 65 64 62 57 53 55 58 60 63 67 72 76 79 80 81 83 84 85 84 82 79 79 81 86
43 44 47 45 46 41 38 40 46 53 57 60 66 69 66 63 60 56 55 58 61 65 70 73 74 75 77 81 83 83 82 81 82 82 79 79 80 81
44 43 40 41 44 46 49 52 56 60 60 63 66 67 64 60 57 56 57 60 66 64 59 59 60 61 57 56 58 63 67 68 70 73 76 77 79 80
46 45 45 44 46 48 52 57 59 61 64 67 65 64 61 58 56 56 57 60 53 50 49 48 46 39 32 30 33 36 42 49 57 63 68 71 73 75
53 50 49 48 50 51 54 59 64 66 65 65 62 61 57 55 53 50 53 50 45 42 41 42 40 37 38 38 37 38 38 38 39 44 49 53 57 60
54 53 51 51 56 59 65 64 62 65 62 61 58 56 53 51 47 46 46 41 38 35 33 33 35 37 36 37 38 39 39 41 43 46 48 52 53 55
56 55 57 62 63 64 59 62 65 64 60 57 55 52 49 46 42 44 42 38 35 33 33 32 31 31 30 32 33 35 36 37 39 40 41 43 45 47